HEBOWX Weather Reports


time (UTC)temp
F
wind
direction
speed
knots
gust
knots
rain 1hr
in
rain 24hr
in
rain mn
in
humidity
%
barometer
mb
20210920052410 50 337 2.6 12.2 0.00 1.23 0.58 99 1025.6
20210920051905 50 320 8.7 12.2 0.00 1.23 0.58 99 1025.5
20210920051405 50 350 7.0 13.9 0.00 1.23 0.58 99 1025.5
20210920050905 50 334 10.4 13.9 0.00 1.23 0.58 99 1025.4
20210920050405 50 351 0.9 13.9 0.00 1.23 0.58 99 1025.4
20210920045905 50 310 4.3 13.9 0.00 1.23 0.58 99 1025.3
20210920045405 50 305 10.4 17.4 0.00 1.23 0.58 99 1025.4
20210920044905 50 330 7.8 17.4 0.00 1.23 0.58 99 1025.3
20210920044405 50 334 9.6 17.4 0.00 1.23 0.58 99 1025.2
20210920043905 50 345 10.4 16.5 0.00 1.23 0.58 99 1025.1
20210920043406 50 322 5.2 14.8 0.00 1.23 0.58 99 1025.1
20210920042905 50 313 7.8 14.8 0.00 1.23 0.58 99 1025.1
20210920042405 50 324 6.1 13.0 0.03 1.23 0.58 99 1025.0
20210920041905 50 154 7.0 13.0 0.03 1.23 0.58 99 1025.0
20210920041406 50 302 10.4 16.5 0.10 1.23 0.58 99 1024.8
20210920040904 50 316 8.7 16.5 0.10 1.23 0.58 99 1024.8
20210920040406 50 130 7.0 16.5 0.14 1.23 0.58 99 1024.7
20210920035904 50 329 11.3 15.6 0.14 1.23 0.58 99 1024.6
20210920034904 50 303 8.7 13.9 0.14 1.10 0.58 99 1024.6
20210920034404 50 323 9.6 13.9 0.14 1.10 0.58 98 1024.5
20210920033405 50 322 9.6 16.5 0.18 1.10 0.58 98 1024.5
20210920032904 50 315 9.6 16.5 0.18 1.10 0.58 98 1024.4
20210920032404 50 329 9.6 16.5 0.18 1.10 0.58 98 1024.3
20210920031904 50 331 7.0 13.0 0.18 1.10 0.55 98 1024.3
20210920031405 50 298 5.2 12.2 0.12 1.10 0.53 99 1024.2
20210920030904 50 1 5.2 11.3 0.12 1.10 0.48 98 1024.2
20210920030405 50 343 8.7 17.4 0.19 1.10 0.46 98 1024.1
20210920025904 50 327 8.7 17.4 0.19 1.10 0.44 98 1023.8
20210920025404 50 319 9.6 17.4 0.35 0.95 0.44 98 1023.7
20210920024904 50 324 10.4 14.8 0.35 0.95 0.44 98 1023.6
20210920023405 50 138 7.8 14.8 0.39 0.95 0.43 98 1023.5
20210920022904 50 131 4.3 14.8 0.39 0.95 0.40 98 1023.5
20210920021904 50 298 1.7 17.4 0.36 0.95 0.37 98 1023.5
20210920021404 50 317 7.0 17.4 0.35 0.95 0.36 98 1023.3
20210920020905 50 121 7.0 17.4 0.35 0.95 0.36 97 1023.2
20210920020404 50 337 8.7 12.2 0.25 0.95 0.35 97 1023.3
20210920015904 51 110 0.0 16.5 0.25 0.95 0.25 97 1023.4
20210920015404 50 316 2.6 16.5 0.09 0.70 0.15 98 1023.3
20210920014905 50 334 10.4 16.5 0.09 0.70 0.09 98 1023.2
20210920014404 50 294 9.6 15.6 0.02 0.70 0.05 98 1023.2
20210920013904 51 303 6.1 18.2 0.02 0.70 0.02 97 1023.2
20210920013404 51 322 7.0 18.2 0.01 0.70 0.02 97 1023.2
20210920012904 51 238 5.2 18.2 0.01 0.70 0.01 97 1023.2
20210920012404 51 284 7.8 18.2 0.01 0.70 0.01 97 1023.1
20210920011904 51 302 8.7 20.9 0.01 0.70 0.01 97 1023.1
20210920011404 51 285 8.7 20.9 0.01 0.70 0.01 97 1023.1
20210920010904 51 322 12.2 20.9 0.01 0.70 0.01 97 1023.1
20210920010404 51 263 10.4 19.1 0.00 0.70 0.00 97 1023.1
20210920005904 51 309 13.0 21.7 0.00 0.70 0.00 97 1022.9
20210920004904 51 271 14.8 21.7 0.00 0.74 0.00 97 1022.8
20210920004404 51 316 11.3 21.7 0.00 0.74 0.00 97 1022.8
20210920003904 51 263 8.7 21.7 0.00 0.74 0.00 97 1022.7
20210920003404 51 273 14.8 21.7 0.00 0.74 0.00 97 1022.7
20210920002904 51 288 7.0 20.0 0.00 0.74 0.00 97 1022.8
20210920002404 51 284 13.9 20.0 0.00 0.74 0.00 97 1022.7
20210920001904 51 316 6.1 26.1 0.00 0.74 0.00 97 1022.7
20210920001404 51 275 14.8 26.1 0.00 0.74 0.00 97 1022.6
20210920000904 51 259 13.9 26.1 0.00 0.74 0.00 97 1022.6
20210920000407 51 295 14.8 25.2 0.00 0.74 0.00 97 1022.5
20210919235905 52 284 11.3 25.2 0.00 0.74 0.00 97 1022.5
20210919235404 51 287 14.8 25.2 0.00 0.75 0.00 97 1022.4
20210919234904 52 274 13.9 22.6 0.00 0.75 0.74 97 1022.5
20210919234404 52 284 3.5 22.6 0.00 0.75 0.74 97 1022.5
20210919233906 52 273 16.5 22.6 0.00 0.75 0.74 96 1022.4
20210919233406 52 263 13.0 22.6 0.00 0.75 0.74 97 1022.4
20210919232904 52 294 9.6 26.9 0.00 0.75 0.74 97 1022.4
20210919232404 52 303 9.6 26.9 0.00 0.75 0.74 97 1022.4
20210919231904 52 303 12.2 26.9 0.00 0.75 0.74 97 1022.4
20210919231404 52 313 13.0 20.0 0.00 0.75 0.74 97 1022.5
20210919230904 52 309 8.7 22.6 0.00 0.75 0.74 97 1022.4
20210919230406 52 292 14.8 22.6 0.00 0.75 0.74 97 1022.3
20210919225904 52 287 13.0 22.6 0.00 0.75 0.74 97 1022.3
20210919225406 52 299 12.2 21.7 0.00 0.78 0.74 97 1022.2
20210919224904 52 285 12.2 21.7 0.00 0.78 0.74 97 1022.3
20210919224404 52 235 9.6 20.0 0.00 0.78 0.74 97 1022.2
20210919223904 52 260 7.0 20.0 0.00 0.78 0.74 97 1022.3
20210919223404 52 288 9.6 19.1 0.00 0.78 0.74 97 1022.1
20210919222904 52 288 12.2 19.1 0.00 0.78 0.74 97 1022.3
20210919222404 52 296 10.4 32.2 0.00 0.78 0.74 97 1022.3
20210919221404 52 299 13.0 32.2 0.00 0.78 0.74 97 1022.1
20210919220904 52 298 8.7 22.6 0.00 0.78 0.74 96 1022.2
20210919220404 52 287 11.3 22.6 0.00 0.78 0.74 97 1021.9
20210919215904 52 267 14.8 22.6 0.00 0.78 0.74 97 1021.9
20210919215404 52 295 11.3 21.7 0.00 0.98 0.74 96 1021.9
20210919214954 52 32 16.5 21.7 0.00 0.98 0.74 96 1021.9
20210919214906 52 32 16.5 21.7 0.00 0.98 0.74 96 1021.9
20210919214404 52 275 3.5 21.7 0.00 0.98 0.74 96 1021.8
20210919213909 52 257 9.6 17.4 0.00 0.98 0.74 96 1021.7
20210919213405 52 201 8.7 16.5 0.00 0.98 0.74 96 1021.8
20210919212904 52 287 11.3 20.0 0.00 0.98 0.74 96 1021.8
20210919212407 52 281 9.6 20.0 0.00 0.98 0.74 97 1021.8
20210919211904 52 322 13.0 20.0 0.00 0.98 0.74 96 1021.8
20210919211404 52 263 11.3 18.2 0.00 0.98 0.74 96 1021.7
20210919210904 52 294 8.7 20.9 0.00 0.98 0.74 96 1021.7
20210919210404 52 302 11.3 20.9 0.00 0.98 0.74 96 1021.7
20210919205904 52 277 12.2 20.9 0.00 0.98 0.74 96 1021.6
20210919205404 52 305 14.8 20.9 0.00 1.00 0.74 96 1021.6
20210919204904 53 303 10.4 22.6 0.00 1.00 0.74 97 1021.5
20210919204403 53 284 7.8 22.6 0.00 1.00 0.74 97 1021.5
20210919203404 53 277 16.5 21.7 0.00 1.00 0.74 97 1021.2
20210919202904 53 282 10.4 20.9 0.00 1.00 0.74 97 1021.2
20210919202404 53 294 13.0 19.1 0.00 1.00 0.74 97 1021.3
20210919201904 53 285 12.2 19.1 0.00 1.00 0.74 97 1021.2
20210919201404 53 309 10.4 16.5 0.01 1.00 0.74 97 1021.2
20210919200904 53 308 9.6 16.5 0.01 1.00 0.74 97 1020.9
20210919200404 53 316 10.4 20.0 0.01 1.00 0.74 97 1020.9
20210919195904 53 271 13.9 20.0 0.01 1.00 0.74 97 1020.8
20210919195404 53 270 9.6 20.0 0.01 1.04 0.74 97 1020.7
20210919194904 53 280 13.0 18.2 0.01 1.04 0.74 97 1020.6
20210919194404 53 278 11.3 16.5 0.01 1.04 0.74 97 1020.6
20210919193904 52 289 7.8 13.9 0.01 1.04 0.74 97 1020.5
20210919193404 52 298 11.3 18.2 0.01 1.04 0.74 97 1020.6
20210919192903 52 310 2.6 18.2 0.01 1.04 0.74 97 1020.5
20210919192405 52 302 7.0 18.2 0.01 1.04 0.74 97 1020.4
20210919191903 52 292 11.3 16.5 0.01 1.04 0.74 97 1020.5
20210919191405 52 284 8.7 16.5 0.00 1.04 0.74 97 1020.4
20210919190903 52 291 12.2 15.6 0.00 1.04 0.73 97 1020.1
20210919190403 52 277 10.4 20.0 0.00 1.04 0.73 97 1020.1
20210919185905 52 296 12.2 20.0 0.00 1.04 0.73 96 1020.1
20210919185403 52 267 11.3 20.0 0.00 1.09 0.73 96 1019.9
20210919184903 52 295 7.8 15.6 0.00 1.09 0.73 97 1019.8
20210919184403 52 319 7.0 15.6 0.00 1.09 0.73 97 1019.8
20210919183903 53 312 9.6 15.6 0.00 1.09 0.73 97 1019.6
20210919183403 52 273 10.4 15.6 0.00 1.09 0.73 98 1019.7
20210919182903 52 263 10.4 17.4 0.00 1.09 0.73 98 1019.5
20210919182404 52 288 11.3 17.4 0.00 1.09 0.73 98 1019.5
20210919181903 52 278 8.7 17.4 0.00 1.09 0.73 98 1019.4
20210919181403 52 267 1.7 16.5 0.00 1.09 0.73 98 1019.3
20210919180903 51 274 9.6 16.5 0.00 1.09 0.73 98 1019.3
20210919180403 51 271 13.0 16.5 0.00 1.09 0.73 98 1019.3
20210919175903 51 296 3.5 15.6 0.00 1.09 0.73 97 1019.1
20210919175403 51 292 5.2 15.6 0.00 1.09 0.73 98 1019.1
20210919174903 51 305 4.3 15.6 0.00 1.09 0.73 97 1019.0
20210919174403 51 289 8.7 14.8 0.00 1.09 0.73 97 1019.0
20210919173903 51 323 6.1 15.6 0.00 1.09 0.73 98 1018.9
20210919173403 51 274 7.8 15.6 0.00 1.09 0.73 98 1018.9
20210919172904 50 296 6.1 15.6 0.00 1.09 0.73 97 1018.8
20210919172403 50 299 11.3 14.8 0.00 1.09 0.73 97 1018.7
20210919171903 50 319 6.1 10.4 0.00 1.09 0.73 97 1018.8
20210919170903 50 308 7.0 13.9 0.00 1.09 0.73 97 1018.6
20210919170403 50 309 8.7 13.9 0.00 1.09 0.73 97 1018.4
20210919165904 50 333 3.5 12.2 0.00 1.09 0.73 97 1018.4
20210919165403 50 317 1.7 12.2 0.00 1.10 0.73 97 1018.2
20210919164903 50 315 3.5 12.2 0.00 1.10 0.73 97 1018.1
20210919164403 50 324 3.5 12.2 0.00 1.10 0.73 97 1017.9
20210919163903 49 324 6.1 13.0 0.00 1.10 0.73 97 1017.8
20210919163403 49 329 4.3 13.0 0.00 1.10 0.73 97 1017.7
20210919162903 49 333 6.1 13.0 0.00 1.10 0.73 97 1017.6
20210919162403 49 316 7.0 12.2 0.00 1.10 0.73 97 1017.5
20210919161904 49 329 6.1 10.4 0.00 1.10 0.73 97 1017.4
20210919161403 49 337 7.8 9.6 0.00 1.10 0.73 97 1017.4
20210919160904 49 337 5.2 13.0 0.00 1.10 0.73 97 1017.2
20210919160403 49 350 7.0 13.0 0.00 1.10 0.73 97 1017.0
20210919155903 49 324 4.3 13.0 0.00 1.10 0.73 97 1016.9
20210919155403 49 343 5.2 11.3 0.00 1.14 0.73 97 1016.9
20210919154903 49 327 0.9 11.3 0.00 1.14 0.73 97 1016.9
20210919154403 49 316 5.2 11.3 0.00 1.14 0.73 97 1016.7
20210919153903 49 322 3.5 11.3 0.00 1.14 0.73 97 1016.7
20210919153404 49 322 7.8 11.3 0.00 1.14 0.73 97 1016.6
20210919152405 48 337 6.1 11.3 0.00 1.14 0.73 97 1016.5
20210919151903 48 322 7.0 11.3 0.00 1.14 0.73 97 1016.3
20210919151403 48 330 4.3 10.4 0.00 1.14 0.73 97 1016.2
20210919150904 48 320 8.7 12.2 0.00 1.14 0.73 97 1016.1
20210919150403 48 350 2.6 12.2 0.00 1.14 0.73 97 1015.9
20210919145903 48 322 6.1 12.2 0.00 1.14 0.73 97 1015.9
20210919145403 48 317 3.5 9.6 0.00 1.24 0.73 97 1015.8
20210919144903 48 323 6.1 13.0 0.00 1.24 0.73 97 1015.8
20210919144405 48 303 6.1 13.0 0.00 1.24 0.73 97 1015.7
20210919143903 48 313 1.7 13.0 0.00 1.24 0.73 97 1015.6
20210919143403 48 309 0.0 13.0 0.00 1.24 0.73 97 1015.5
20210919142903 48 301 4.3 13.0 0.00 1.24 0.73 97 1015.3
20210919142403 48 315 9.6 12.2 0.00 1.24 0.73 97 1015.2
20210919141903 48 306 7.0 13.9 0.00 1.24 0.73 97 1015.0
20210919141403 48 302 4.3 13.9 0.00 1.24 0.73 97 1015.0
20210919140903 48 291 2.6 13.9 0.00 1.24 0.73 97 1014.8
20210919140404 48 341 4.3 10.4 0.00 1.24 0.73 97 1014.7
20210919135903 48 308 5.2 10.4 0.00 1.24 0.73 97 1014.7
20210919134903 47 313 4.3 9.6 0.00 1.62 0.73 97 1014.4
20210919134403 47 301 4.3 8.7 0.00 1.62 0.73 97 1014.3
20210919133903 47 298 5.2 8.7 0.00 1.62 0.73 97 1014.2
20210919133403 47 315 2.6 8.7 0.00 1.62 0.73 97 1014.1
20210919132905 47 134 2.6 8.7 0.00 1.62 0.73 96 1014.0
20210919132403 47 331 2.6 8.7 0.00 1.62 0.73 96 1014.0
20210919131903 47 329 4.3 9.6 0.00 1.62 0.73 96 1013.9
20210919125903 47 316 6.1 8.7 0.00 1.62 0.73 96 1013.5
20210919125403 47 330 7.0 10.4 0.00 1.83 0.73 96 1013.3
20210919124903 47 336 7.0 10.4 0.00 1.83 0.73 96 1013.2
20210919124403 47 324 6.1 10.4 0.00 1.83 0.73 96 1013.3
20210919123903 47 317 7.0 10.4 0.00 1.83 0.73 96 1013.1
20210919123403 47 313 7.0 12.2 0.00 1.83 0.73 96 1013.1
20210919122903 47 319 7.8 12.2 0.00 1.83 0.73 96 1013.0
20210919122403 47 322 7.8 12.2 0.00 1.83 0.73 96 1012.9
20210919121403 47 315 7.0 13.9 0.00 1.83 0.73 96 1012.7
20210919120903 47 315 7.0 13.9 0.00 1.83 0.73 96 1012.5
20210919120403 47 316 8.7 13.9 0.00 1.83 0.73 96 1012.4
20210919115903 47 322 8.7 12.2 0.00 1.83 0.73 96 1012.4
20210919115403 47 316 7.0 11.3 0.00 1.84 0.73 96 1012.4
20210919114903 47 306 7.0 10.4 0.00 1.84 0.73 96 1012.3
20210919114403 47 313 7.8 10.4 0.00 1.84 0.73 96 1012.2
20210919113904 47 322 7.0 11.3 0.00 1.84 0.73 96 1012.2
20210919113403 46 302 6.1 11.3 0.01 1.84 0.73 96 1012.1
20210919112903 46 326 5.2 11.3 0.01 1.84 0.73 97 1012.0
20210919112403 46 313 7.0 10.4 0.02 1.84 0.73 97 1012.1
20210919111903 46 336 6.1 9.6 0.02 1.84 0.73 97 1012.1
20210919111403 46 155 7.8 8.7 0.04 1.84 0.73 97 1012.0
20210919110903 46 340 7.0 8.7 0.04 1.84 0.73 97 1011.9
20210919110403 46 162 7.8 10.4 0.09 1.84 0.73 97 1011.9
20210919105903 46 355 7.0 10.4 0.09 1.84 0.73 97 1011.8
20210919105403 46 2 7.8 10.4 0.14 1.87 0.73 97 1011.8
20210919104903 46 333 7.0 10.4 0.14 1.87 0.73 97 1011.6
20210919104403 46 352 4.3 13.9 0.18 1.87 0.73 97 1011.5
20210919103402 47 338 8.7 13.9 0.20 1.87 0.73 97 1011.6
20210919102902 47 308 4.3 13.9 0.20 1.87 0.72 97 1011.5
20210919101902 47 313 5.2 22.6 0.26 1.87 0.71 97 1011.5
20210919101402 48 315 11.3 22.6 0.24 1.87 0.70 97 1011.6
20210919100902 48 287 13.0 22.6 0.24 1.87 0.69 97 1011.6
20210919100402 49 259 4.3 19.1 0.19 1.87 0.67 98 1011.5
20210919095902 48 291 12.2 19.1 0.19 1.87 0.64 97 1011.4
20210919095402 48 296 5.2 16.5 0.14 1.81 0.61 97 1011.4
20210919094902 48 256 7.8 16.5 0.14 1.81 0.59 98 1011.3
20210919094402 48 268 12.2 16.5 0.11 1.81 0.57 97 1011.2
20210919093902 48 270 8.7 22.6 0.11 1.81 0.55 97 1011.1
20210919093402 48 235 12.2 22.6 0.11 1.81 0.52 97 1011.1
20210919092904 48 275 13.0 22.6 0.11 1.81 0.52 97 1011.1
20210919092402 48 252 12.2 20.0 0.05 1.81 0.49 97 1011.2
20210919091902 48 240 11.3 18.2 0.05 1.81 0.45 97 1011.0
20210919091402 48 249 6.1 18.2 0.08 1.81 0.45 97 1011.1
20210919090902 48 247 10.4 18.2 0.08 1.81 0.45 96 1011.1
20210919090403 48 253 12.2 16.5 0.18 1.81 0.45 97 1011.0
20210919085902 48 238 10.4 16.5 0.18 1.81 0.45 97 1011.1
20210919085402 48 233 10.4 16.5 0.24 1.67 0.45 97 1011.0
20210919084902 48 211 7.0 21.7 0.24 1.67 0.45 97 1011.0
20210919084402 48 228 10.4 21.7 0.24 1.67 0.45 97 1011.0
20210919083402 48 232 15.6 21.7 0.21 1.67 0.43 97 1010.9
20210919082902 48 260 10.4 22.6 0.21 1.67 0.41 97 1011.0
20210919082402 48 242 13.0 22.6 0.20 1.67 0.40 96 1010.9
20210919081902 48 239 15.6 22.6 0.20 1.67 0.40 96 1010.8
20210919081403 48 228 13.0 20.9 0.17 1.67 0.39 97 1010.8
20210919080902 48 242 6.1 24.3 0.17 1.67 0.37 97 1010.8
20210919080402 48 252 11.3 24.3 0.07 1.67 0.31 97 1010.8
20210919075903 48 243 15.6 24.3 0.07 1.67 0.27 96 1010.6
20210919074902 48 240 7.0 22.6 0.01 1.72 0.21 97 1010.5
20210919074402 48 201 6.1 22.6 0.00 1.72 0.20 96 1010.4
20210919073903 48 257 12.2 22.6 0.00 1.72 0.20 96 1010.4
20210919073402 48 249 11.3 18.2 0.00 1.72 0.20 96 1010.5
20210919072903 48 257 8.7 18.2 0.00 1.72 0.20 96 1010.5
20210919072403 49 243 11.3 18.2 0.01 1.72 0.20 96 1010.6
20210919071902 49 270 9.6 17.4 0.01 1.72 0.20 97 1010.6
20210919071402 49 253 9.6 16.5 0.05 1.72 0.20 97 1010.6
20210919070902 49 252 8.7 16.5 0.11 1.72 0.20 97 1010.6
20210919070405 49 252 11.3 16.5 0.11 1.72 0.20 97 1010.6
20210919065902 49 263 8.7 15.6 0.11 1.72 0.20 97 1010.5
20210919065402 49 232 7.8 15.6 0.11 1.76 0.20 97 1010.5
20210919064902 49 281 7.0 14.8 0.11 1.76 0.20 97 1010.5
20210919064402 49 273 5.2 18.2 0.11 1.76 0.20 97 1010.5
20210919063902 49 268 13.0 18.2 0.11 1.76 0.20 97 1010.4
20210919063402 49 253 11.3 18.2 0.11 1.76 0.20 97 1010.4
20210919062902 49 238 12.2 18.2 0.11 1.76 0.20 97 1010.3
20210919062402 49 233 11.3 18.2 0.10 1.76 0.20 97 1010.2
20210919061902 49 240 9.6 19.1 0.10 1.76 0.19 97 1010.3
20210919061402 49 249 12.2 19.1 0.06 1.76 0.17 97 1010.2
20210919060902 49 235 8.7 19.1 0.06 1.76 0.15 97 1010.1
20210919060402 49 261 10.4 19.1 0.00 1.76 0.11 98 1010.0
20210919055902 49 165 8.7 19.1 0.00 1.76 0.09 97 1010.0
20210919055402 49 253 14.8 20.0 0.00 2.07 0.09 97 1010.0
20210919054902 49 240 14.8 20.0 0.00 2.07 0.09 97 1009.9
20210919054402 49 254 12.2 20.0 0.00 2.07 0.09 97 1009.9
20210919053902 49 261 9.6 20.0 0.00 2.07 0.09 97 1009.9
20210919053404 49 254 9.6 17.4 0.00 2.07 0.09 97 1009.7
20210919052903 49 252 11.3 22.6 0.00 2.07 0.09 97 1009.7